AirNav   Air Wisconsin Up To $57,000 Bonus
 
 713 users online  

0L7 Jean Airport
Jean, Nevada, USA

GOING TO JEAN?


FAA INFORMATION EFFECTIVE 26 JANUARY 2023

Location

FAA Identifier: 0L7
Lat/Long: 35-46-05.7517N 115-19-46.6391W
35-46.095862N 115-19.777318W
35.7682644,-115.3296220
(estimated)
Elevation: 2835 ft. / 864.1 m (surveyed)
Variation: 14E (1985)
From city: 1 mile S of JEAN, NV
Time zone: UTC -8 (UTC -7 during Daylight Saving Time)
Zip code: 89019

Airport Operations

Airport use: Open to the public
Activation date: 03/1943
Control tower: no
ARTCC: LOS ANGELES CENTER
FSS: RENO FLIGHT SERVICE STATION
NOTAMs facility: RNO (NOTAM-D service available)
Attendance: UNATNDD
Pattern altitude: 3635 ft. MSL
Wind indicator: yes
Segmented circle: yes
Lights: ACTVT MIRL RWY 02L/20R - CTAF.
Beacon: white-green (lighted land airport)
Operates sunset to sunrise.

Airport Communications

CTAF: 122.9
WX AWOS-3PT at HND (16 nm NE): 120.775 (702-614-4537)

Nearby radio navigation aids

VOR radial/distance  VOR name  Freq  Var
LASr189/20.4LAS VEGAS VORTAC116.9015E
BLDr224/26.5BOULDER CITY VORTAC116.7015E
GFSr334/39.0GOFFS VORTAC114.4015E

Airport Services

Fuel available: 100LL JET-A
100LL:24 HR SELF SVC FUEL.
Parking: tiedowns

Runway Information

Runway 2L/20R

Dimensions: 4600 x 75 ft. / 1402 x 23 m
Surface: asphalt, in good condition
Weight bearing capacity: 
PCN 52 /F/A/X/T
Single wheel: 12.5
Runway edge lights: medium intensity
RUNWAY 2L  RUNWAY 20R
Latitude: 35-45.801667N35-46.444667N
Longitude: 115-20.035000W115-19.542000W
Elevation: 2816.7 ft.2834.6 ft.
Traffic pattern: leftright
Runway heading: 018 magnetic, 032 true198 magnetic, 212 true
Markings: basic, in good conditionbasic, in good condition
Touchdown point: yes, no lightsyes, no lights
Obstructions: 30 ft. pole, 1230 ft. from runway, 180 ft. left of centerline, 34:1 slope to clear15 ft. road, 830 ft. from runway, 42:1 slope to clear

Runway 2R/20L

Dimensions: 3700 x 60 ft. / 1128 x 18 m
Surface: asphalt, in good condition
Weight bearing capacity: 
Single wheel: 12.5
RUNWAY 2R  RUNWAY 20L
Latitude: 35-45.803333N35-46.320500N
Longitude: 115-19.961667W115-19.565167W
Elevation: 2814.5 ft.2827.9 ft.
Traffic pattern: rightleft
Runway heading: 018 magnetic, 032 true198 magnetic, 212 true
Markings: basic, in good conditionbasic, in good condition
Touchdown point: yes, no lightsyes, no lights
Obstructions: none85 ft. pole, 1940 ft. from runway, 510 ft. left of centerline, 20:1 slope to clear

Airport Ownership and Management from official FAA records

Ownership: Publicly-owned
Owner: CLARK COUNTY
PO BOX 11005 AIRPORT STATION
LAS VEGAS, NV 89111
Phone 702-261-4800
Manager: BRUCE DAUGHERTY
3500 EXECUTIVE TERMINAL DR
HENDERSON, NV 89052
Phone 702-261-4802
JUSTIN DI AMBROSIO - 702-261-4851

Airport Operational Statistics

Aircraft based on the field: 20
Single engine airplanes: 11
Multi engine airplanes: 1
Gliders airplanes: 8
    
Aircraft operations: avg 44/day *
74% transient general aviation
22% local general aviation
2% military
1% air taxi
* for 12-month period ending 31 May 2022

Additional Remarks

PWR ACFT PRKG W OF FLD; GLDR PRKG E OF FLD.
FOR CD CTC LAS VEGAS APCH AT 725-200-4432.
PWR ACFT ENTRY FM W; USE TFC PAT W OF RWY.
SKYDIVING DROP ZONE 4 MI S; AEROBATIC ACT 2 MI W; ULTRALIGHT ACT ON ARPT.
GLDR ACT 12000 FT MSL & BLW INVOF ARPT.

Instrument Procedures

There are no published instrument procedures at 0L7.

Some nearby airports with instrument procedures:

KHND - Henderson Executive Airport (16 nm NE)
KLAS - Harry Reid International Airport (21 nm NE)
KBVU - Boulder City Municipal Airport (25 nm NE)
KVGT - North Las Vegas Airport (27 nm N)
KLSV - Nellis Air Force Base (32 nm NE)
 
Loc | Ops | Rwys | IFR | FBO | Links
Com | Nav | Svcs | Stats | Notes
Area around 0L7 (Jean Airport)
 
Road maps at: MapQuest Bing Google
 
Aerial photo
WARNING: Photo may not be current or correct
Aerial photo of 0L7 (Jean Airport)
Photo by Jassen Photography
Photo taken 18-Oct-2015
looking south.

Do you have a better or more recent aerial photo of Jean Airport that you would like to share? If so, please send us your photo.

 
Sectional chart

 
Airport distance calculator
Flying to Jean Airport? Find the distance to fly.

From to 0L7

Sunrise and sunset
Times for 29-Jan-2023
 Local
(UTC-8)
 Zulu
(UTC)
Morning civil twilight06:1814:18
Sunrise06:4514:45
Sunset17:0401:04
Evening civil twilight17:3101:31

Current date and time
Zulu (UTC)  29-Jan-2023 11:59:08
Local (UTC-8)  29-Jan-2023 03:59:08
 
METAR
KHND 
16nm NE 
291056Z AUTO 00000KT 10SM CLR 02/M06 A2982 RMK AO2 SLP118 T00221061 FZRANO
KLAS 
21nm NE 
291056Z 22003KT 10SM CLR 04/M04 A2981 RMK AO2 SLP092 T00391044
KBVU 
25nm NE 
291135Z AUTO 09005KT 10SM CLR 06/M06 A2982 RMK AO2
KVGT 
27nm N 
291153Z AUTO 00000KT 10SM CLR 04/M04 A2980 RMK AO2 SLP110 T00391044 10067 20028 56013
KLSV 
31nm NE 
291055Z AUTO 05009KT 10SM CLR 05/M05 A2979 RMK AO2 SLP083 T00451053 $
TAF
KHND 
16nm NE 
290520Z 2906/3006 18007KT P6SM SCT200 FM291500 18011KT P6SM FEW100 FM291900 22016G24KT P6SM FEW100 FM300300 22008KT P6SM SCT080
NOTAMs
Click for the latest NOTAMs
NOTAMs are issued by the DoD/FAA and will open in a separate window not controlled by AirNav.

 

 
 

FBO, Fuel Providers, and Aircraft Ground Support

  
 Business Name 
 
 Contact 
 
 Services / Description 
 
Fuel Prices
 
Comments
  
Jean Airport 702-261-4802
702-261-4800
[web site]
[email]
Aviation fuel, Aircraft parking (ramp or tiedown), Public telephone, Restrooms

More info about Jean Airport
World Fuel Services
100LL Jet A
SS $6.88 $7.78 
 Updated 25-Jan-2023
 
   write
SS=Self service
Update Fuel Prices
 

Would you like to see your business listed on this page?

 If your business provides an interesting product or service to pilots, flight crews, aircraft, or users of the Jean Airport, you should consider listing it here.  To start the listing process, click on the button below
 
Add a business
 

Other Pages about Jean Airport

www.mccarran.com/ga_jean.asp
 
Update a link
 
Copyright © AirNav, LLC. All rights reserved. Privacy Policy  Contact